TimeCDT,TemperatureF,Dew PointF,Humidity,Sea Level PressureIn,VisibilityMPH,Wind Direction,Wind SpeedMPH,Gust SpeedMPH,PrecipitationIn,Events,Conditions,WindDirDegrees,DateUTC
12:15 AM,60.8,50.0,68,29.90,10.0,WNW,15.0,-,N/A,,Overcast,290,2013-09-20 05:15:00
12:35 AM,60.8,50.0,68,29.89,10.0,WNW,16.1,-,N/A,,Mostly Cloudy,300,2013-09-20 05:35:00
12:55 AM,59.0,48.2,67,29.90,10.0,WNW,13.8,-,N/A,,Mostly Cloudy,300,2013-09-20 05:55:00
1:15 AM,59.0,48.2,67,29.90,10.0,WNW,12.7,-,N/A,,Mostly Cloudy,300,2013-09-20 06:15:00
1:35 AM,57.2,48.2,72,29.90,10.0,WNW,13.8,18.4,N/A,,Mostly Cloudy,300,2013-09-20 06:35:00
1:55 AM,57.2,48.2,72,29.91,10.0,WNW,11.5,-,N/A,,Scattered Clouds,290,2013-09-20 06:55:00
2:15 AM,57.2,48.2,72,29.91,10.0,WNW,10.4,-,N/A,,Scattered Clouds,290,2013-09-20 07:15:00
2:35 AM,57.2,48.2,72,29.91,10.0,WNW,12.7,-,N/A,,Scattered Clouds,290,2013-09-20 07:35:00
2:55 AM,55.4,46.4,72,29.91,10.0,WNW,11.5,-,N/A,,Partly Cloudy,290,2013-09-20 07:55:00
3:15 AM,55.4,46.4,72,29.91,10.0,WNW,11.5,-,N/A,,Partly Cloudy,290,2013-09-20 08:15:00
3:35 AM,53.6,46.4,77,29.91,10.0,West,10.4,-,N/A,,Partly Cloudy,280,2013-09-20 08:35:00
3:55 AM,53.6,46.4,77,29.92,10.0,West,11.5,-,N/A,,Clear,280,2013-09-20 08:55:00
4:15 AM,53.6,46.4,77,29.91,10.0,West,10.4,-,N/A,,Clear,280,2013-09-20 09:15:00
4:35 AM,53.6,46.4,77,29.91,10.0,West,10.4,-,N/A,,Clear,270,2013-09-20 09:35:00
4:55 AM,51.8,46.4,82,29.92,10.0,West,13.8,-,N/A,,Partly Cloudy,270,2013-09-20 09:55:00
5:15 AM,51.8,46.4,82,29.91,10.0,West,12.7,-,N/A,,Scattered Clouds,280,2013-09-20 10:15:00
5:35 AM,51.8,46.4,82,29.91,10.0,West,12.7,-,N/A,,Partly Cloudy,280,2013-09-20 10:35:00
5:55 AM,51.8,44.6,76,29.91,10.0,West,10.4,-,N/A,,Clear,280,2013-09-20 10:55:00
6:15 AM,51.8,44.6,76,29.91,10.0,West,12.7,17.3,N/A,,Mostly Cloudy,280,2013-09-20 11:15:00
6:35 AM,51.8,46.4,82,29.92,10.0,West,13.8,18.4,N/A,,Overcast,280,2013-09-20 11:35:00
6:55 AM,51.8,46.4,82,29.92,10.0,WNW,11.5,-,N/A,,Overcast,290,2013-09-20 11:55:00
7:15 AM,53.6,46.4,77,29.92,10.0,West,11.5,-,N/A,,Overcast,280,2013-09-20 12:15:00
7:35 AM,53.6,46.4,77,29.93,10.0,WNW,11.5,-,N/A,,Overcast,290,2013-09-20 12:35:00
7:55 AM,53.6,46.4,77,29.93,10.0,West,12.7,18.4,N/A,,Overcast,280,2013-09-20 12:55:00
8:15 AM,53.6,46.4,77,29.93,10.0,WNW,10.4,-,N/A,,Overcast,290,2013-09-20 13:15:00
8:35 AM,55.4,48.2,77,29.93,10.0,WNW,11.5,-,N/A,,Overcast,290,2013-09-20 13:35:00
8:55 AM,55.4,48.2,77,29.94,10.0,WNW,13.8,-,N/A,,Overcast,290,2013-09-20 13:55:00
9:15 AM,55.4,48.2,77,29.94,9.0,WNW,13.8,19.6,N/A,,Overcast,300,2013-09-20 14:15:00
9:35 AM,55.4,50.0,82,29.94,7.0,WNW,13.8,-,N/A,,Overcast,300,2013-09-20 14:35:00
9:55 AM,55.4,50.0,82,29.95,10.0,WNW,16.1,25.3,N/A,,Overcast,300,2013-09-20 14:55:00
10:15 AM,55.4,48.2,77,29.95,10.0,NW,13.8,23.0,N/A,,Overcast,310,2013-09-20 15:15:00
10:35 AM,57.2,48.2,72,29.96,10.0,NW,18.4,24.2,N/A,,Overcast,310,2013-09-20 15:35:00
10:55 AM,57.2,46.4,67,29.96,10.0,NW,17.3,21.9,N/A,,Overcast,310,2013-09-20 15:55:00
11:15 AM,59.0,48.2,67,29.96,10.0,NW,19.6,-,N/A,,Overcast,310,2013-09-20 16:15:00
11:35 AM,60.8,46.4,59,29.96,10.0,NW,13.8,25.3,N/A,,Overcast,320,2013-09-20 16:35:00
11:55 AM,60.8,46.4,59,29.96,10.0,WNW,17.3,24.2,N/A,,Overcast,300,2013-09-20 16:55:00
12:15 PM,60.8,46.4,59,29.96,10.0,NW,18.4,24.2,N/A,,Overcast,310,2013-09-20 17:15:00
12:35 PM,59.0,46.4,63,29.96,10.0,WNW,19.6,-,N/A,,Overcast,300,2013-09-20 17:35:00
12:55 PM,59.0,46.4,63,29.96,10.0,NW,17.3,-,N/A,,Overcast,310,2013-09-20 17:55:00
1:15 PM,59.0,46.4,63,29.96,10.0,WNW,15.0,20.7,N/A,,Overcast,300,2013-09-20 18:15:00
1:35 PM,59.0,46.4,63,29.96,10.0,WNW,15.0,20.7,N/A,,Overcast,300,2013-09-20 18:35:00
1:55 PM,60.8,46.4,59,29.95,10.0,WNW,20.7,25.3,N/A,,Overcast,300,2013-09-20 18:55:00
2:15 PM,59.0,46.4,63,29.95,10.0,WNW,19.6,24.2,N/A,,Overcast,300,2013-09-20 19:15:00
2:35 PM,59.0,46.4,63,29.95,10.0,NW,17.3,21.9,N/A,,Overcast,310,2013-09-20 19:35:00
2:55 PM,59.0,46.4,63,29.96,10.0,NW,15.0,19.6,N/A,,Overcast,310,2013-09-20 19:55:00
3:15 PM,59.0,46.4,63,29.95,10.0,WNW,11.5,-,N/A,,Overcast,300,2013-09-20 20:15:00
3:35 PM,60.8,44.6,55,29.95,10.0,NW,16.1,-,N/A,,Overcast,310,2013-09-20 20:35:00
3:55 PM,60.8,44.6,55,29.94,10.0,WNW,11.5,-,N/A,,Overcast,300,2013-09-20 20:55:00
4:15 PM,60.8,44.6,55,29.95,10.0,NW,13.8,20.7,N/A,,Overcast,320,2013-09-20 21:15:00
4:35 PM,60.8,44.6,55,29.94,10.0,WNW,15.0,18.4,N/A,,Overcast,300,2013-09-20 21:35:00
4:55 PM,59.0,44.6,59,29.94,10.0,WNW,16.1,-,N/A,,Overcast,300,2013-09-20 21:55:00
5:15 PM,60.8,42.8,52,29.95,10.0,WNW,16.1,24.2,N/A,,Overcast,300,2013-09-20 22:15:00
5:35 PM,59.0,42.8,55,29.95,10.0,WNW,13.8,19.6,N/A,,Overcast,290,2013-09-20 22:35:00
5:55 PM,57.2,42.8,59,29.95,10.0,WNW,13.8,21.9,N/A,,Overcast,300,2013-09-20 22:55:00
6:15 PM,57.2,42.8,59,29.96,10.0,WNW,15.0,18.4,N/A,,Overcast,290,2013-09-20 23:15:00
6:35 PM,57.2,41.0,55,29.96,10.0,WNW,15.0,19.6,N/A,,Overcast,300,2013-09-20 23:35:00
6:55 PM,57.2,41.0,55,29.95,10.0,WNW,10.4,-,N/A,,Overcast,290,2013-09-20 23:55:00
7:15 PM,55.4,41.0,58,29.96,10.0,WNW,8.1,-,N/A,,Overcast,290,2013-09-21 00:15:00
7:35 PM,55.4,41.0,58,29.96,10.0,WNW,8.1,-,N/A,,Mostly Cloudy,290,2013-09-21 00:35:00
7:55 PM,53.6,41.0,62,29.97,10.0,West,6.9,-,N/A,,Partly Cloudy,280,2013-09-21 00:55:00
8:15 PM,51.8,41.0,67,29.97,10.0,WNW,6.9,-,N/A,,Clear,300,2013-09-21 01:15:00
8:35 PM,50.0,39.2,66,29.97,10.0,WNW,6.9,-,N/A,,Clear,300,2013-09-21 01:35:00
8:55 PM,48.2,39.2,71,29.97,10.0,WNW,5.8,-,N/A,,Clear,300,2013-09-21 01:55:00
9:15 PM,48.2,39.2,71,29.98,10.0,WNW,4.6,-,N/A,,Clear,290,2013-09-21 02:15:00
9:35 PM,46.4,39.2,76,29.98,10.0,Calm,Calm,-,N/A,,Clear,0,2013-09-21 02:35:00
9:55 PM,46.4,39.2,76,29.99,10.0,West,3.5,-,N/A,,Clear,270,2013-09-21 02:55:00
10:15 PM,46.4,39.2,76,29.99,10.0,West,3.5,-,N/A,,Clear,270,2013-09-21 03:15:00
10:35 PM,46.4,39.2,76,29.99,10.0,West,3.5,-,N/A,,Clear,270,2013-09-21 03:35:00
10:55 PM,46.4,39.2,76,29.99,10.0,Calm,Calm,-,N/A,,Clear,0,2013-09-21 03:55:00
11:15 PM,46.4,39.2,76,29.99,10.0,Calm,Calm,-,N/A,,Clear,0,2013-09-21 04:15:00
11:35 PM,46.4,41.0,81,29.99,10.0,West,3.5,-,N/A,,Clear,270,2013-09-21 04:35:00
11:55 PM,44.6,39.2,81,29.99,10.0,West,3.5,-,N/A,,Clear,270,2013-09-21 04:55:00